S51DM-13 Weather Reports


Display with metric or nautical units.
time (UTC)temp
F
wind
direction
speed
MPH
gust
MPH
rain 1hr
in
rain 24hr
in
rain mn
in
humidity
%
barometer
mb
20260507075405 60 146 1.0 4.0 0.00 0.00 0.00 71 1011.0
20260507074503 60 129 1.0 6.0 0.00 0.00 0.00 70 1011.2
20260507073603 60 135 1.0 6.0 0.00 0.00 0.00 68 1011.3
20260507072705 60 123 2.0 6.0 0.00 0.00 0.00 68 1011.1
20260507071805 60 105 1.0 4.0 0.00 0.00 0.00 69 1011.1
20260507070903 60 142 2.0 6.0 0.00 0.00 0.00 69 1011.0
20260507070008 60 136 1.0 6.0 0.00 0.00 0.00 69 1010.8
20260507065618 60 135 1.0 6.0 0.00 0.00 0.00 69 1010.6
20260507064505 60 183 1.0 3.0 0.00 0.00 0.00 70 1010.8
20260507063605 59 120 1.0 4.0 0.00 0.00 0.00 71 1010.5
20260507062703 59 152 1.0 4.0 0.00 0.00 0.00 71 1010.5
20260507062019 59 122 2.0 6.0 0.00 0.00 0.00 71 1010.1
20260507060905 59 90 2.0 7.0 0.00 0.00 0.00 71 1010.2
20260507060218 59 78 1.0 6.0 0.00 0.00 0.00 72 1010.3
20260507055403 59 115 1.0 6.0 0.00 0.00 0.00 71 1010.0
20260507054505 59 120 2.0 4.0 0.00 0.00 0.00 72 1009.9
20260507053818 59 92 2.0 6.0 0.00 0.00 0.00 72 1009.8
20260507052704 58 144 2.0 7.0 0.00 0.00 0.00 72 1009.6
20260507051805 58 156 1.0 4.0 0.00 0.00 0.00 72 1009.9
20260507050903 58 142 2.0 6.0 0.00 0.00 0.00 73 1010.1
20260507050003 58 115 2.0 6.0 0.00 0.00 0.00 73 1010.1
20260507045405 58 154 2.0 6.0 0.00 0.00 0.00 73 1009.8
20260507044505 58 114 2.0 6.0 0.00 0.00 0.00 73 1009.8
20260507043818 58 93 2.0 6.0 0.00 0.00 0.00 73 1009.9
20260507042919 57 121 2.0 7.0 0.00 0.00 0.00 74 1009.8
20260507041803 58 115 2.0 8.0 0.00 0.00 0.00 73 1010.0
20260507040905 58 151 2.0 6.0 0.00 0.00 0.00 74 1009.5
20260507040003 58 109 2.0 6.0 0.00 0.00 0.00 73 1009.6
20260507035619 57 98 1.0 3.0 0.00 0.00 0.00 74 1009.3
20260507034505 58 136 1.0 7.0 0.00 0.00 0.00 73 1009.3
20260507033605 58 149 1.0 3.0 0.00 0.00 0.00 73 1009.4
20260507032704 58 154 2.0 6.0 0.00 0.00 0.00 73 1009.5
20260507031803 57 167 2.0 6.0 0.00 0.00 0.00 73 1009.5
20260507031117 57 146 2.0 6.0 0.00 0.00 0.00 73 1009.3
20260507030005 57 127 2.0 6.0 0.00 0.00 0.00 73 1009.3
20260507025403 57 144 1.0 4.0 0.00 0.00 0.00 73 1009.2
20260507024503 57 155 1.0 4.0 0.00 0.00 0.00 74 1009.2
20260507023605 57 135 2.0 7.0 0.00 0.00 0.00 73 1009.4
20260507022705 57 105 1.0 7.0 0.00 0.00 0.00 73 1009.5
20260507021805 57 139 2.0 6.0 0.00 0.00 0.00 73 1009.6
20260507020905 57 108 2.0 6.0 0.00 0.00 0.00 73 1009.6
20260507020003 57 148 1.0 4.0 0.00 0.00 0.00 74 1009.4
20260507015403 57 133 1.0 3.0 0.00 0.00 0.00 74 1009.2
20260507014503 57 147 1.0 3.0 0.00 0.00 0.00 74 1009.3
20260507013603 57 118 1.0 4.0 0.00 0.00 0.00 75 1009.6
20260507012704 58 125 1.0 4.0 0.00 0.00 0.00 74 1009.2
20260507011805 58 137 1.0 8.0 0.00 0.00 0.00 73 1009.3
20260507010905 58 94 1.0 8.0 0.00 0.00 0.00 73 1009.2
20260507010005 59 112 1.0 4.0 0.00 0.00 0.00 72 1009.2
20260507005403 59 124 1.0 4.0 0.00 0.00 0.00 73 1009.3
20260507004503 58 111 1.0 4.0 0.00 0.00 0.00 74 1009.1
20260507003603 58 132 1.0 4.0 0.00 0.00 0.00 76 1009.4
20260507002918 58 128 1.0 6.0 0.00 0.00 0.00 76 1009.4
20260507001803 58 105 1.0 4.0 0.00 0.00 0.00 77 1009.4
20260507001119 58 124 1.0 4.0 0.00 0.00 0.00 77 1009.5
20260507000005 58 153 1.0 6.0 0.00 0.00 0.00 77 1009.7
20260506235425 58 136 1.0 3.0 0.00 0.00 0.00 77 1009.5
20260506234719 59 138 1.0 4.0 0.00 0.00 0.00 76 1009.6
20260506233603 59 96 2.0 6.0 0.00 0.00 0.00 76 1009.8
20260506232705 59 135 1.0 4.0 0.00 0.00 0.00 76 1009.6
20260506231805 59 129 1.0 4.0 0.00 0.00 0.00 76 1009.5
20260506230903 59 114 1.0 4.0 0.00 0.00 0.00 75 1009.7
20260506230006 59 104 1.0 4.0 0.00 0.00 0.00 75 1009.5
20260506225403 59 106 1.0 7.0 0.00 0.00 0.00 74 1009.7
20260506224505 60 110 1.0 7.0 0.00 0.00 0.00 74 1009.5
20260506223604 60 121 1.0 3.0 0.00 0.00 0.00 73 1009.5
20260506222705 60 170 1.0 6.0 0.00 0.00 0.00 73 1009.8
20260506221803 60 146 1.0 6.0 0.00 0.00 0.00 72 1009.5
20260506220903 60 123 1.0 3.0 0.00 0.00 0.00 71 1009.5
20260506220219 60 130 1.0 3.0 0.00 0.00 0.00 71 1009.4
20260506215405 60 142 1.0 4.0 0.00 0.00 0.00 71 1009.5
20260506214718 60 135 1.0 6.0 0.00 0.00 0.00 71 1009.4
20260506213605 59 109 1.0 3.0 0.00 0.00 0.00 72 1009.5
20260506212919 59 88 1.0 3.0 0.00 0.00 0.00 73 1009.2
20260506212018 59 108 1.0 2.0 0.00 0.00 0.00 73 1009.0
20260506211117 59 105 1.0 2.0 0.00 0.00 0.00 72 1009.0
20260506210003 58 135 1.0 4.0 0.00 0.00 0.00 73 1009.2
20260506205405 58 125 0.0 2.0 0.00 0.00 0.00 74 1008.8
20260506204503 58 110 1.0 2.0 0.00 0.00 0.00 74 1009.1
20260506203817 58 109 0.0 2.0 0.00 0.00 0.00 76 1009.0
20260506202703 58 112 0.0 1.0 0.00 0.00 0.00 76 1009.0
20260506201805 58 112 0.0 1.0 0.00 0.00 0.00 75 1009.1
20260506200905 58 0 0.0 0.0 0.00 0.00 0.00 74 1008.9
20260506200005 59 0 0.0 0.0 0.00 0.00 0.00 74 1009.1
20260506195405 59 0 0.0 0.0 0.00 0.00 0.00 73 1008.8
20260506194719 59 113 0.0 1.0 0.00 0.00 0.00 73 1008.7
20260506193604 59 0 0.0 0.0 0.00 0.00 0.00 74 1008.6
20260506192705 59 0 0.0 0.0 0.00 0.00 0.00 73 1008.6
20260506191803 60 0 0.0 0.0 0.00 0.00 0.00 71 1008.5
20260506191119 61 112 0.0 1.0 0.00 0.00 0.00 68 1008.5
20260506190003 62 98 0.0 4.0 0.00 0.00 0.00 67 1008.2
20260506185403 62 120 0.0 2.0 0.00 0.00 0.00 66 1008.2
20260506184505 62 166 1.0 4.0 0.00 0.00 0.00 66 1008.0
20260506183818 63 118 1.0 8.0 0.00 0.00 0.00 65 1007.9
20260506182705 63 109 1.0 3.0 0.00 0.00 0.00 65 1008.0
20260506181804 63 126 1.0 3.0 0.00 0.00 0.00 64 1008.1
20260506180905 64 115 1.0 4.0 0.00 0.00 0.00 63 1007.9
20260506180006 64 233 1.0 4.0 0.00 0.00 0.00 62 1007.8
20260506175617 64 161 2.0 6.0 0.00 0.00 0.00 62 1007.7
20260506174503 65 115 2.0 10.0 0.00 0.00 0.00 62 1007.9
20260506173605 65 140 1.0 3.0 0.00 0.00 0.00 62 1007.4
20260506172705 65 159 1.0 4.0 0.00 0.00 0.00 61 1007.8
20260506172016 66 122 1.0 7.0 0.00 0.00 0.00 60 1007.7
20260506170903 66 94 2.0 6.0 0.00 0.00 0.00 59 1007.9
20260506170003 67 63 2.0 7.0 0.00 0.00 0.00 58 1007.6
20260506165405 69 98 2.0 7.0 0.00 0.00 0.00 56 1007.6
20260506164505 68 123 2.0 9.0 0.00 0.00 0.00 57 1007.7
20260506163603 67 133 2.0 18.0 0.00 0.00 0.00 58 1007.7
20260506162704 67 83 3.0 18.0 0.00 0.00 0.00 59 1007.8
20260506161803 67 112 3.0 9.0 0.00 0.00 0.00 59 1008.1
20260506161119 66 200 3.0 9.0 0.00 0.00 0.00 59 1008.1
20260506160003 66 95 3.0 8.0 0.00 0.00 0.00 59 1008.1
20260506155405 66 105 3.0 8.0 0.00 0.00 0.00 59 1008.2
20260506154505 67 96 2.0 7.0 0.00 0.00 0.00 58 1008.1
20260506153603 67 169 2.0 9.0 0.00 0.00 0.00 57 1007.9
20260506152703 67 114 2.0 10.0 0.00 0.00 0.00 57 1007.9
20260506152020 68 87 2.0 9.0 0.00 0.00 0.00 57 1008.2
20260506151119 68 67 3.0 7.0 0.00 0.00 0.00 56 1008.3
20260506150005 69 138 2.0 9.0 0.00 0.00 0.00 54 1008.3
20260506145403 69 150 3.0 9.0 0.00 0.00 0.00 55 1008.1
20260506144505 69 328 3.0 9.0 0.00 0.00 0.00 54 1008.2
20260506143605 69 125 1.0 7.0 0.00 0.00 0.00 55 1008.2
20260506142918 69 98 2.0 7.0 0.00 0.00 0.00 55 1008.3
20260506141805 69 173 2.0 8.0 0.00 0.00 0.00 55 1008.5
20260506140903 69 101 2.0 8.0 0.00 0.00 0.00 54 1008.5
20260506140006 70 118 2.0 8.0 0.00 0.00 0.00 53 1008.4
20260506135405 71 88 2.0 9.0 0.00 0.00 0.00 52 1008.6
20260506134505 69 118 3.0 9.0 0.00 0.00 0.00 55 1008.6
20260506133603 70 112 2.0 7.0 0.00 0.00 0.00 53 1008.8
20260506132918 70 123 2.0 7.0 0.00 0.00 0.00 53 1008.9
20260506131805 69 150 3.0 8.0 0.00 0.00 0.00 54 1009.0
20260506130903 68 68 4.0 11.0 0.00 0.00 0.00 55 1009.1
20260506130004 68 147 4.0 11.0 0.00 0.00 0.00 55 1009.1
20260506125403 69 156 3.0 11.0 0.00 0.00 0.00 53 1009.2
20260506124505 70 108 3.0 8.0 0.00 0.00 0.00 52 1009.1
20260506123603 69 159 4.0 13.0 0.00 0.00 0.00 53 1009.3
20260506122705 67 109 4.0 14.0 0.00 0.00 0.00 55 1009.2
20260506121805 68 116 4.0 15.0 0.00 0.00 0.00 54 1009.4
20260506120905 68 95 3.0 14.0 0.00 0.00 0.00 53 1009.6
20260506120005 67 183 4.0 10.0 0.00 0.00 0.00 55 1009.2
20260506115405 67 147 5.0 13.0 0.00 0.00 0.00 55 1009.3
20260506114718 67 106 5.0 14.0 0.00 0.00 0.00 54 1009.4
20260506113604 70 87 4.0 13.0 0.00 0.00 0.00 50 1009.4
20260506112705 71 180 3.0 16.0 0.00 0.00 0.00 48 1009.5
20260506111803 72 174 2.0 9.0 0.00 0.00 0.00 49 1009.4
20260506110905 70 315 3.0 13.0 0.00 0.00 0.00 52 1009.4
20260506110005 70 84 3.0 10.0 0.00 0.00 0.00 53 1009.6
20260506105404 70 122 3.0 11.0 0.00 0.00 0.00 53 1009.6
20260506104505 70 178 4.0 11.0 0.00 0.00 0.00 52 1009.7
20260506103603 70 137 3.0 13.0 0.00 0.00 0.00 52 1009.6
20260506102703 71 112 3.0 8.0 0.00 0.00 0.00 51 1009.6
20260506102020 72 79 3.0 9.0 0.00 0.00 0.00 51 1009.3
20260506101119 70 166 3.0 17.0 0.00 0.00 0.00 53 1009.7
20260506100218 72 95 2.0 9.0 0.00 0.00 0.00 50 1009.8
20260506095405 70 183 3.0 10.0 0.00 0.00 0.00 53 1009.7
20260506094505 68 80 2.0 10.0 0.00 0.00 0.00 56 1009.8
20260506093605 68 48 1.0 4.0 0.00 0.00 0.00 57 1009.4
20260506092703 67 51 2.0 7.0 0.00 0.00 0.00 58 1009.4
20260506092019 67 43 2.0 7.0 0.00 0.00 0.00 59 1009.6
20260506090905 66 334 2.0 7.0 0.00 0.00 0.00 59 1009.7
20260506090004 67 344 3.0 7.0 0.00 0.00 0.00 57 1009.3
20260506085404 68 46 3.0 9.0 0.00 0.00 0.00 56 1009.4
20260506084719 70 19 3.0 7.0 0.00 0.00 0.00 53 1009.3
20260506083603 72 160 2.0 7.0 0.00 0.00 0.00 50 1009.5
20260506082703 72 15 3.0 8.0 0.00 0.00 0.00 50 1009.5
20260506081805 70 4 4.0 10.0 0.00 0.00 0.00 51 1009.4
20260506080905 70 94 4.0 10.0 0.00 0.00 0.00 51 1009.4
20260506080218 69 19 3.0 8.0 0.00 0.00 0.00 52 1009.5